星链-31337 (STARLINK-31337 )

导读

STARLINK-31337是美国太空探索技术公司(SpaceX)于2024年2月10日发射的星链(Starlink)低轨互联网卫星,隶属于全球规模最大的低轨卫星互联网星座。星链旨在通过近地轨道大规模组网,为全球提供高速低延迟宽带服务。该卫星运行在近地轨道,依靠霍尔推进器实现轨道调整与碰撞规避,延续了星链卫星典型设计,为星座覆盖拓展与网络服务稳定提供支撑,助力星链全球互联布局推进。

Basic Information
目录编号:
58934
目录名称:
STARLINK-31337
国际标识:
2024-027D
轨道中心:
EARTH
卫星名称:
星链-31337
卫星全名:
星链-31337 (STARLINK-31337 )
卫星状态:
在轨 (已飞行859 天)
发射日期:
2024-02-10 UTC
国别 :
美国 (US)
星等 :
--
Orbit Information
数据来源 国际轨道数据 AOE轨道数据
星历时间 2026-06-17T16:59:55+0800
21小时前
查看轨道信息
2026-06-17T01:00:00+0800
1天前
查看轨道信息
半长轴 6853.366km 6853.368km
偏心率 0.0001249 0.0001525
轨道倾角 53.161° 53.157°
近地点辐角 81.749° 69.182°
升交点赤经 206.380° 209.475°
平近点角 278.365° 216.724°
近地点 474.373km 474.185km
远地点 476.085km 476.277km
周期 94.106分钟 94.106分钟
每日圈数 15.301954 15.301947
Detailed Information
固有亮度:
5
最大亮度:
0.3
卫星平台:
Starlink v2.0 mini
覆盖范围:
全球
运营商:
太空探索技术公司
运营商所在国:
美国
制造商(研发单位):
太空探索技术公司
制造商所在国:
美国
使用方式:
暂无
Satellite Introduction
星链(Starlink)计划是由太空探索技术公司(SpaceX)提出的一个巨型低轨卫星互联网星座项目,计划在2019年至2024年间在太空搭建由约1.2万颗卫星组成的“星链”网络,其中1584颗将部署在地球上空550千米处的近地轨道,并从2020年开始工作。该卫星仍在工作。
2D Orbit Map
3D Orbit Map
Orbit Altitude Analysis Chart
Orbit Inclination Analysis Chart
Orbit Comprehensive Analysis Chart
View Comprehensive Chart